[[{"header":{"parameterUnit":"m.s-1","parameterCategory":1,"la1":30.2992,"la2":30.254,"lo1":-89.0895,"lo2":-89.0443,"dy":0.0025,"dx":0.0025,"nx":19,"ny":19,"refTime":"2026-04-22T03:00:00:Z","depth":0,"parameterNumber":2,"parameterNumberName":"U-component_of_WINDS"},"data":[0,0,0,-5.2238,-5.224,-5.2328,-5.2328,-5.2446,-5.2447,0,0,0,0,0,0,0,0,0,0,0,-5.2217,-5.2218,-5.2238,-5.224,-5.2328,-5.2328,-5.2446,-5.2447,0,0,0,0,0,0,0,0,0,0,0,-5.2217,-5.2218,-5.2219,-5.2241,-5.2327,-5.2328,-5.2445,-5.2377,0,0,0,0,0,0,0,0,0,0,-5.2291,-5.2276,-5.2218,-5.2219,-5.2241,-5.2327,-5.2328,-5.2373,-5.2381,-5.2409,0,-5.2437,0,-5.2444,-5.2455,-5.2456,0,0,0,-5.2236,-5.227,-5.229,-5.2219,-5.2242,-5.2327,-5.2287,-5.2378,-5.2386,-5.242,-5.2438,-5.2443,-5.2446,-5.2456,-5.2457,-5.2637,-5.2638,0,0,-5.2231,-5.2235,-5.2284,-5.2296,-5.2284,-5.2284,-5.229,-5.2383,-5.2403,-5.2439,-5.2445,-5.2448,-5.2457,-5.2458,-5.2636,-5.2638,0,0,0,-5.222,-5.2232,-5.2249,-5.2291,-5.2306,-5.2287,-5.2293,-5.2399,-5.2404,-5.2446,-5.2449,-5.2458,-5.2459,-5.2635,-5.2637,-5.2691,0,0,0,-5.2217,-5.2225,-5.2247,-5.225,-5.2305,-5.2354,-5.2307,-5.2398,-5.2408,-5.2449,-5.2458,-5.246,-5.2634,-5.2636,-5.2687,-5.2715,0,0,0,-5.221,-5.2224,-5.2239,-5.225,-5.2288,-5.2352,-5.2363,-5.24,-5.241,-5.2456,-5.2461,-5.2633,-5.2636,-5.2684,-5.2709,-5.2762,0,0,0,-5.2202,-5.2285,-5.224,-5.2334,-5.2287,-5.2387,-5.2362,-5.2436,-5.2482,-5.2458,-5.2634,-5.2637,-5.2682,-5.2705,-5.2759,-5.2806,-5.2827,0,0,-5.2309,-5.2298,-5.2354,-5.2316,-5.2424,-5.2373,-5.2489,-5.2527,-5.2527,-5.26,-5.2605,-5.2688,-5.2709,-5.2762,-5.2948,-5.2964,0,0,0,-5.2388,-5.2428,-5.2456,-5.2501,-5.2534,-5.2563,-5.2583,-5.2598,-5.266,-5.2566,-5.2724,-5.2735,-5.2766,-5.2788,-5.2803,-5.2828,-5.2648,-5.2648,-5.2647,-5.2542,-5.254,-5.2631,-5.264,-5.2685,-5.2706,-5.2741,-5.2764,-5.2748,-5.2785,-5.2805,-5.2919,-5.2945,-5.2956,-5.2983,-5.2833,-5.2833,-5.2834,-5.2834,-5.2696,-5.275,-5.273,-5.2811,-5.2809,-5.2876,-5.2901,-5.2888,-5.2949,-5.2903,-5.293,-5.2877,-5.2974,-5.2997,-5.2838,-5.2837,-5.2837,-5.2836,-5.2836,-5.2793,-5.2819,-5.2837,-5.2903,-5.2955,-5.2962,-5.3022,-5.3018,-5.3015,-5.3042,-5.3062,-5.3061,-5.3057,-5.3053,-5.3053,-5.3053,-5.3054,-5.3054,-5.3054,-5.2885,-5.2905,-5.2957,-5.3001,-5.303,-5.3068,-5.3093,-5.3121,-5.315,-5.3142,-5.3143,-5.3122,-5.2986,-5.295,-5.306,-5.3059,-5.3058,-5.3058,-5.3057,-5.3036,-5.3002,-5.3083,-5.3112,-5.3164,-5.3215,-5.3211,-5.3269,-5.3292,-5.3322,-5.3298,-5.3199,-5.3186,-5.3175,-5.3145,-5.3299,-5.3299,-5.3299,-5.3299,-5.3116,-5.3111,-5.3193,-5.3241,-5.3287,-5.3292,-5.3382,-5.3404,-5.342,-5.3434,-5.3412,-5.3373,-5.3362,-5.3356,-5.3341,-5.3312,-5.3506,-5.3506,-5.3506,-5.3208,-5.3208,-5.3285,-5.3302,-5.3343,-5.3378,-5.3463,-5.3517,-5.3528,-5.3515,-5.3444,-5.3435,-5.3373,-5.3353,-5.3333,-5.3309,-5.3257,0,0]},{"header":{"parameterUnit":"m.s-1","parameterCategory":1,"la1":30.2992,"la2":30.254,"lo1":-89.0895,"lo2":-89.0443,"dy":0.0025,"dx":0.0025,"nx":19,"ny":19,"refTime":"2026-04-22T03:00:00:Z","depth":0,"parameterNumber":3,"parameterNumberName":"V-component_of_WINDS"},"data":[0,0,0,3.4417,3.4416,3.4353,3.4353,3.4266,3.4265,0,0,0,0,0,0,0,0,0,0,0,3.4433,3.4432,3.4417,3.4415,3.4353,3.4353,3.4266,3.4265,0,0,0,0,0,0,0,0,0,0,0,3.4433,3.4433,3.4432,3.4415,3.4353,3.4353,3.4266,3.4315,0,0,0,0,0,0,0,0,0,0,3.4377,3.439,3.4433,3.4432,3.4415,3.4353,3.4353,3.4318,3.4312,3.4292,0,3.4275,0,3.4268,3.4259,3.4258,0,0,0,3.4416,3.4395,3.438,3.4432,3.4414,3.4353,3.4381,3.4315,3.4308,3.4284,3.4273,3.427,3.4267,3.4258,3.4258,3.4142,3.4141,0,0,3.442,3.442,3.4385,3.4376,3.4388,3.4383,3.4379,3.4311,3.4298,3.4273,3.4268,3.4266,3.4257,3.4257,3.4142,3.4142,0,0,0,3.4429,3.4422,3.441,3.438,3.4369,3.4382,3.4377,3.4301,3.4297,3.4267,3.4265,3.4257,3.4256,3.4143,3.4142,3.4114,0,0,0,3.4431,3.4428,3.4411,3.441,3.437,3.4335,3.4369,3.4302,3.4294,3.4265,3.4257,3.4255,3.4144,3.4143,3.4117,3.4101,0,0,0,3.4438,3.4428,3.4419,3.4411,3.4384,3.4336,3.4328,3.43,3.4292,3.4258,3.4255,3.4144,3.4143,3.4119,3.4104,3.4071,0,0,0,3.4444,3.4393,3.4418,3.436,3.4384,3.432,3.4328,3.4279,3.4247,3.4256,3.4144,3.4142,3.4119,3.4106,3.4073,3.4044,3.4032,0,0,3.438,3.4385,3.4351,3.4372,3.4303,3.4329,3.4256,3.4224,3.4219,3.4167,3.4165,3.4116,3.4104,3.4072,3.3964,3.3954,0,0,0,3.4331,3.4306,3.4288,3.4258,3.4235,3.4214,3.4194,3.4183,3.4139,3.4194,3.4095,3.4088,3.4069,3.4055,3.4047,3.4031,3.4136,3.4136,3.4136,3.4238,3.4238,3.4181,3.4173,3.4144,3.4126,3.4102,3.4084,3.4089,3.4066,3.405,3.3985,3.3969,3.3963,3.3946,3.4035,3.4035,3.4034,3.4034,3.4144,3.411,3.4121,3.4071,3.407,3.4026,3.4007,3.4012,3.3971,3.3996,3.3979,3.4007,3.3952,3.3938,3.4032,3.4033,3.4033,3.4033,3.4033,3.4084,3.4067,3.4056,3.4015,3.3982,3.3975,3.3936,3.3936,3.3935,3.3918,3.3903,3.3903,3.3904,3.3911,3.3911,3.3911,3.391,3.391,3.391,3.4026,3.4015,3.3983,3.3956,3.3937,3.3913,3.3895,3.3876,3.3856,3.3858,3.3858,3.3866,3.3947,3.3968,3.3906,3.3907,3.3908,3.3908,3.3908,3.3932,3.3954,3.3905,3.3887,3.3855,3.3823,3.3824,3.3786,3.3771,3.3752,3.3764,3.3824,3.3829,3.3835,3.3852,3.3764,3.3764,3.3764,3.3764,3.3881,3.3885,3.3836,3.3807,3.3779,3.3775,3.3719,3.3705,3.3692,3.3683,3.3695,3.3718,3.3724,3.3725,3.3734,3.375,3.3638,3.3638,3.3638,3.3824,3.3824,3.3777,3.3769,3.3744,3.3722,3.367,3.3635,3.3626,3.3633,3.3675,3.368,3.3717,3.3729,3.3736,3.375,3.3779,0,0]}]]